When you browse on this site, cookies collect data to enhance your experience and personalize the content and advertising you see.
Visit our Privacy Policy to learn more. By continuing to use the site, you agree to this use of cookies and data.
  • In Hungary
  • List of Countries
  • For 7 days
  • Water Temperature
  • Weather Map
  • News
  • Weather Widgets
  • user-avatar
    Login

    Hourly Weather Boca de Sábalos

    Today, 13 November, Wednesday

    Time Temperature Precipitation Wind Pressure Humidity
    00:00 +22°C° 0 mm 0 mps 754 mmHg 98%
    01:00 +22°C° 0 mm 0 mps 754 mmHg 98%
    02:00 +22°C° 0 mm 0 mps 754 mmHg 98%
    03:00 +22°C° 0 mm 0 mps 754 mmHg 98%
    04:00 +22°C° 0 mm 0 mps 754 mmHg 98%
    05:00 +22°C° 0 mm 0 mps 754 mmHg 98%
    06:00 +22°C° 0 mm 0 mps 755 mmHg 98%
    07:00 +24°C° 0 mm 0 mps 755 mmHg 90%
    08:00 +26°C° 0 mm 0 mps 756 mmHg 82%
    09:00 +28°C° 0 mm 0 mps 756 mmHg 74%
    10:00 +30°C° 0.7 mm 1 mps 756 mmHg 76%
    11:00 +30°C° 0.7 mm 1 mps 755 mmHg 78%
    12:00 +30°C° 0.7 mm 1 mps 754 mmHg 80%
    13:00 +30°C° 0.8 mm 1 mps 754 mmHg 81%
    14:00 +30°C° 0.8 mm 1 mps 753 mmHg 81%
    15:00 +30°C° 0.8 mm 1 mps 753 mmHg 82%
    16:00 +28°C° 0.6 mm 1 mps 753 mmHg 86%
    17:00 +27°C° 0.6 mm 1 mps 754 mmHg 90%
    18:00 +25°C° 0.6 mm 1 mps 754 mmHg 95%
    19:00 +25°C° 0.1 mm 1 mps 755 mmHg 96%
    20:00 +23°C° 0.1 mm 0 mps 755 mmHg 96%
    21:00 +22°C° 0.1 mm 0 mps 756 mmHg 97%
    22:00 +22°C° 0 mm 0 mps 756 mmHg 98%
    23:00 +22°C° 0 mm 0 mps 755 mmHg 98%

    Tomorrow, 14 November, Thursday

    Time Temperature Precipitation Wind Pressure Humidity
    00:00 +22°C° 0 mm 0 mps 755 mmHg 98%
    01:00 +21°C° 0 mm 0 mps 755 mmHg 98%
    02:00 +21°C° 0 mm 0 mps 755 mmHg 98%
    03:00 +21°C° 0 mm 0 mps 754 mmHg 98%
    04:00 +21°C° 0 mm 0 mps 755 mmHg 98%
    05:00 +21°C° 0 mm 0 mps 755 mmHg 98%
    06:00 +21°C° 0 mm 0 mps 755 mmHg 98%
    07:00 +24°C° 0 mm 0 mps 756 mmHg 89%
    08:00 +26°C° 0 mm 0 mps 756 mmHg 81%
    09:00 +28°C° 0 mm 0 mps 757 mmHg 72%
    10:00 +29°C° 0 mm 0 mps 756 mmHg 67%
    11:00 +30°C° 0 mm 0 mps 756 mmHg 62%
    12:00 +33°C° 0 mm 1 mps 755 mmHg 57%
    13:00 +32°C° 0.4 mm 1 mps 754 mmHg 64%
    14:00 +32°C° 0.4 mm 1 mps 754 mmHg 71%
    15:00 +31°C° 0.4 mm 1 mps 753 mmHg 78%
    16:00 +29°C° 0.6 mm 1 mps 754 mmHg 84%
    17:00 +28°C° 0.6 mm 1 mps 754 mmHg 89%
    18:00 +26°C° 0.6 mm 1 mps 754 mmHg 95%
    19:00 +26°C° 0.4 mm 1 mps 755 mmHg 96%
    20:00 +25°C° 0.4 mm 1 mps 756 mmHg 96%
    21:00 +23°C° 0.4 mm 0 mps 756 mmHg 97%
    22:00 +22°C° 0 mm 0 mps 756 mmHg 97%
    23:00 +22°C° 0 mm 0 mps 756 mmHg 97%

    Day after tomorrow, 15 November, Friday

    Time Temperature Precipitation Wind Pressure Humidity
    00:00 +22°C° 0 mm 0 mps 755 mmHg 98%
    01:00 +22°C° 0 mm 0 mps 755 mmHg 98%
    02:00 +22°C° 0 mm 0 mps 755 mmHg 98%
    03:00 +22°C° 0 mm 0 mps 755 mmHg 98%
    04:00 +22°C° 0 mm 0 mps 755 mmHg 98%
    05:00 +22°C° 0 mm 0 mps 755 mmHg 98%
    06:00 +22°C° 0 mm 0 mps 756 mmHg 98%
    07:00 +24°C° 0.2 mm 0 mps 756 mmHg 93%
    08:00 +25°C° 0.2 mm 0 mps 756 mmHg 88%
    09:00 +27°C° 0.2 mm 0 mps 757 mmHg 83%
    10:00 +29°C° 1.3 mm 1 mps 756 mmHg 84%
    11:00 +29°C° 1.3 mm 1 mps 755 mmHg 85%
    12:00 +30°C° 1.3 mm 1 mps 754 mmHg 86%
    13:00 +30°C° 1.5 mm 1 mps 754 mmHg 86%
    14:00 +30°C° 1.5 mm 1 mps 754 mmHg 86%
    15:00 +30°C° 1.5 mm 1 mps 753 mmHg 86%
    16:00 +28°C° 0.5 mm 1 mps 753 mmHg 89%
    17:00 +27°C° 0.5 mm 1 mps 754 mmHg 92%
    18:00 +24°C° 0.5 mm 0 mps 754 mmHg 96%
    19:00 +23°C° 0.5 mm 0 mps 755 mmHg 96%
    20:00 +23°C° 0.5 mm 0 mps 755 mmHg 97%
    21:00 +23°C° 0.5 mm 0 mps 756 mmHg 97%
    22:00 +22°C° 0 mm 0 mps 755 mmHg 98%
    23:00 +22°C° 0 mm 0 mps 755 mmHg 98%

    16 November, Saturday

    Time Temperature Precipitation Wind Pressure Humidity
    00:00 +22°C° 0 mm 0 mps 755 mmHg 98%
    01:00 +22°C° 0 mm 0 mps 754 mmHg 98%
    02:00 +22°C° 0 mm 0 mps 754 mmHg 98%
    03:00 +22°C° 0 mm 0 mps 754 mmHg 98%
    04:00 +22°C° 0 mm 0 mps 754 mmHg 98%
    05:00 +22°C° 0 mm 0 mps 754 mmHg 98%
    06:00 +22°C° 0 mm 0 mps 755 mmHg 98%
    07:00 +24°C° 0.1 mm 0 mps 755 mmHg 91%
    08:00 +26°C° 0.1 mm 0 mps 755 mmHg 84%
    09:00 +28°C° 0.1 mm 0 mps 755 mmHg 77%
    10:00 +30°C° 0.8 mm 1 mps 755 mmHg 79%
    11:00 +30°C° 0.8 mm 1 mps 754 mmHg 80%
    12:00 +30°C° 0.8 mm 1 mps 753 mmHg 82%
    13:00 +30°C° 1.6 mm 1 mps 753 mmHg 85%
    14:00 +29°C° 1.6 mm 1 mps 752 mmHg 87%
    15:00 +29°C° 1.6 mm 1 mps 752 mmHg 89%
    16:00 +28°C° 1 mm 1 mps 752 mmHg 92%
    17:00 +27°C° 1 mm 1 mps 753 mmHg 94%
    18:00 +25°C° 1 mm 1 mps 753 mmHg 96%
    19:00 +25°C° 0.3 mm 1 mps 754 mmHg 97%
    20:00 +25°C° 0.3 mm 1 mps 754 mmHg 97%
    21:00 +24°C° 0.3 mm 1 mps 754 mmHg 97%
    22:00 +24°C° 0.4 mm 1 mps 754 mmHg 98%
    23:00 +22°C° 0.4 mm 0 mps 754 mmHg 98%

    17 November, Sunday

    Time Temperature Precipitation Wind Pressure Humidity
    00:00 +22°C° 0.4 mm 0 mps 754 mmHg 98%
    01:00 +22°C° 0.3 mm 0 mps 753 mmHg 98%
    02:00 +22°C° 0.3 mm 0 mps 753 mmHg 98%
    03:00 +22°C° 0.3 mm 0 mps 753 mmHg 98%
    04:00 +22°C° 0 mm 0 mps 753 mmHg 98%
    05:00 +22°C° 0 mm 0 mps 753 mmHg 98%
    06:00 +22°C° 0 mm 0 mps 754 mmHg 98%
    07:00 +25°C° 0.1 mm 1 mps 754 mmHg 93%
    08:00 +27°C° 0.1 mm 1 mps 754 mmHg 89%
    09:00 +28°C° 0.1 mm 1 mps 755 mmHg 84%
    10:00 +28°C° 1.8 mm 1 mps 754 mmHg 86%
    11:00 +28°C° 1.8 mm 1 mps 754 mmHg 88%
    12:00 +29°C° 1.8 mm 1 mps 753 mmHg 90%
    13:00 +29°C° 2 mm 1 mps 752 mmHg 90%
    14:00 +29°C° 2 mm 1 mps 752 mmHg 90%
    15:00 +29°C° 2 mm 1 mps 751 mmHg 90%
    16:00 +27°C° 1.2 mm 1 mps 752 mmHg 92%
    17:00 +26°C° 1.2 mm 1 mps 752 mmHg 94%
    18:00 +25°C° 1.2 mm 1 mps 753 mmHg 96%
    19:00 +25°C° 0.1 mm 1 mps 753 mmHg 97%
    20:00 +25°C° 0.1 mm 1 mps 754 mmHg 97%
    21:00 +24°C° 0.1 mm 1 mps 754 mmHg 97%
    22:00 +24°C° 0.1 mm 1 mps 754 mmHg 97%
    23:00 +22°C° 0.1 mm 0 mps 754 mmHg 97%

    18 November, Monday

    Time Temperature Precipitation Wind Pressure Humidity
    00:00 +22°C° 0.1 mm 0 mps 754 mmHg 97%
    01:00 +22°C° 0 mm 0 mps 753 mmHg 97%
    02:00 +21°C° 0 mm 0 mps 753 mmHg 96%
    03:00 +21°C° 0 mm 0 mps 753 mmHg 96%
    04:00 +21°C° 0 mm 0 mps 753 mmHg 95%
    05:00 +20°C° 0 mm 0 mps 754 mmHg 95%
    06:00 +20°C° 0 mm 0 mps 754 mmHg 95%
    07:00 +22°C° 0 mm 0 mps 755 mmHg 86%
    08:00 +24°C° 0 mm 0 mps 755 mmHg 76%
    09:00 +28°C° 0 mm 1 mps 755 mmHg 66%
    10:00 +30°C° 0 mm 1 mps 755 mmHg 61%
    11:00 +31°C° 0 mm 1 mps 754 mmHg 55%
    12:00 +33°C° 0 mm 1 mps 754 mmHg 49%
    13:00 +32°C° 0 mm 1 mps 753 mmHg 53%
    14:00 +32°C° 0 mm 1 mps 752 mmHg 57%
    15:00 +31°C° 0 mm 1 mps 752 mmHg 60%
    16:00 +29°C° 0 mm 1 mps 752 mmHg 69%
    17:00 +28°C° 0 mm 1 mps 753 mmHg 77%
    18:00 +26°C° 0 mm 1 mps 753 mmHg 86%
    19:00 +25°C° 0 mm 1 mps 754 mmHg 88%
    20:00 +23°C° 0 mm 0 mps 754 mmHg 90%
    21:00 +22°C° 0 mm 0 mps 755 mmHg 92%
    22:00 +22°C° 0 mm 0 mps 755 mmHg 93%
    23:00 +22°C° 0 mm 0 mps 754 mmHg 94%
    Show more